Presure
140 132 134 129 111 118 115 103 109 110 108 110 115 102 109 108 115 114 118 114 118 119 132 203 115 119 119 121 131 128 137 137 137 144 133 141 148 121 110 103 133 125 121 104 99
162 133 145 114 134 121 116 121 114 109 112 112 117 117 104 121 123 115 116 122 124 116 168 113 170 200 116 134 116 138 109 138 135 131 144 159 130 133 138 117 134 109 135 105 101
153 134 140 162 145 151 131 120 122 119 133 127 121 120 123 133 101 151 119 134 152 105 219 134 197 223 117 129 122 126 120 132 139 134 138 94 89 134 97 117 135 101 112 112 89
139 161 225 144 156 184 110 159 156 140 107 135 117 141 133 124 142 139 137 123 145 149 185 196 216 216 162 177 142 127 145 129 141 141 124 145 151 135 113 122 124 133 144 116 108
219 226 223 212 215 205 114 138 149 156 143 127 117 142 143 141 124 146 123 147 173 176 125 170 155 205 216 216 197 145 134 145 135 143 137 125 133 117 122 137 115 138 124 120 116
209 214 217 218 211 218 130 244 159 145 137 129 127 114 179 129 147 155 137 182 173 170 150 154 161 173 198 202 207 129 133 135 143 138 105 141 141 141 134 143 128 134 140 137 111
215 211 219 206 210 208 203 226 205 193 136 150 137 151 201 118 155 178 178 185 175 139 162 166 188 182 172 184 185 124 205 100 126 137 145 139 136 140 140 106 133 137 124 121 119
240 223 207 210 199 202 202 206 215 224 221 152 160 174 198 202 191 188 169 188 178 158 170 163 203 191 175 178 193 181 188 198 168 156 138 138 134 121 125 100 144 148 141 137 126
229 230 238 199 208 204 194 201 200 193 200 180 209 186 175 181 202 171 184 179 161 150 169 160 170 207 200 203 178 167 198 149 180 141 179 130 123 121 139 134 147 141 123 141 155
226 233 233 224 201 198 199 198 212 203 203 200 171 196 183 201 174 162 178 187 169 155 164 158 179 199 172 185 214 212 203 179 82 141 143 144 137 151 138 157 143 127 142 161 135
219 217 215 201 198 195 213 193 201 208 199 199 199 191 196 192 189 180 181 175 170 160 160 157 177 178 171 170 235 213 211 124 153 127 127 130 143 150 144 151 78 140 164 143 160
220 226 229 225 219 192 208 193 196 203 192 191 194 194 190 185 201 192 180 177 176 162 152 160 191 192 170 194 237 229 125 207 144 139 132 140 138 138 164 158 92 122 122 116 109
211 218 223 224 202 209 211 192 204 187 182 195 198 189 157 197 199 190 179 171 160 171 151 200 179 189 184 202 197 218 242 239 242 191 145 137 135 88 147 161 101 95 171 146 109
197 204 212 214 200 215 212 184 204 185 191 193 187 185 190 184 196 188 181 174 165 174 153 173 180 161 163 201 200 191 188 180 180 229 141 171 248 256 225 178 241 117 155 268 155
192 195 199 201 205 210 197 195 193 194 197 181 192 188 194 200 194 189 182 174 167 158 159 176 201 204 163 200 199 200 190 189 83 243 239 245 243 246 141 237 130 127 171 260 158
185 187 190 190 192 197 202 199 200 203 196 198 192 193 201 180 179 191 186 170 175 164 158 177 204 197 191 197 188 188 180 181 194 194 237 238 223 225 229 218 228 232 199 139 263
186 184 186 188 189 193 194 193 196 199 200 204 200 204 197 203 197 183 190 172 170 151 165 184 203 198 196 193 191 134 174 181 210 208 220 159 223 141 230 197 227 185 124 220 244
185 183 182 180 188 188 188 190 192 195 198 199 205 207 211 211 213 192 188 178 180 192 166 190 200 200 190 191 189 184 202 205 204 202 211 217 131 205 209 227 107 104 245 252 233
186 184 184 183 186 183 182 187 190 194 196 196 200 204 203 203 108 193 192 189 194 173 196 208 202 207 194 196 196 182 205 209 204 210 210 210 202 206 206 152 229 261 183 240 246
179 188 187 185 185 189 189 188 197 285 269 265 204 213 205 206 204 197 195 193 197 204 204 166 199 194 192 189 208 211 201 209 205 208 218 210 205 202 159 217 226 258 259 225 244
185 190 190 190 185 186 187 192 257 227 251 250 249 250 240 203 206 202 193 196 198 201 201 192 187 180 194 216 214 212 207 206 207 208 229 227 212 208 214 220 239 254 254 244 214
199 193 194 190 187 187 189 184 211 230 97 241 252 251 245 244 226 197 193 193 192 234 231 190 209 224 219 215 213 212 209 208 214 227 226 221 213 218 216 225 247 260 247 220 210
204 187 190 188 189 190 187 185 202 216 231 228 233 233 239 237 236 209 223 219 221 229 231 227 221 220 216 213 211 216 221 212 218 217 221 203 227 213 207 233 261 253 244 209 200
193 192 195 191 192 191 185 181 185 206 210 218 223 226 221 219 218 216 215 218 218 217 215 218 215 217 218 216 216 220 216 222 240 219 204 223 216 215 210 199 266 213 226 202 205
203 196 196 194 192 189 188 178 184 196 208 202 204 205 207 208 211 215 213 185 209 205 209 222 222 227 227 229 255 265 219 223 230 207 214 213 204 208 207 215 252 229 215 203 189
188 203 206 192 193 189 190 182 176 190 204 207 210 202 203 209 212 215 215 232 221 213 213 215 221 231 263 271 209 252 242 206 213 250 222 211 248 252 251 224 118 230 211 193 188
195 196 194 199 204 199 193 185 178 174 197 203 199 201 209 209 211 214 213 208 204 205 207 212 223 238 252 260 283 243 241 247 229 230 239 233 188 184 249 231 239 228 229 196 188
Wind_Speed
69 66 71 69 61 70 64 39 52 53 43 43 47 32 37 34 43 38 45 39 38 35 48 44 38 41 38 37 40 35 39 35 33 33 33 30 28 17 13 8 30 24 23 14 10
90 76 74 63 74 65 62 71 55 51 56 50 57 55 32 59 48 45 44 52 49 36 44 35 40 53 36 47 29 43 18 38 34 34 37 39 27 28 30 24 28 16 27 17 11
88 74 79 86 73 78 75 69 72 67 73 69 56 61 59 66 31 57 51 52 50 34 39 45 44 47 39 40 38 41 30 34 37 37 37 3 13 34 6 24 32 9 18 23 7
80 72 64 77 79 84 44 83 79 76 41 71 54 69 66 61 61 59 61 40 52 55 43 42 41 41 53 59 51 42 47 37 39 39 28 37 38 33 22 26 29 30 34 20 23
63 60 62 65 60 66 59 64 77 77 76 73 57 65 68 64 53 59 43 56 53 45 43 45 43 40 41 46 53 52 41 48 39 39 39 30 30 24 32 36 29 32 31 22 26
63 60 60 59 59 57 79 49 84 75 75 65 63 47 65 54 63 65 59 55 52 48 45 42 45 46 42 43 44 41 42 43 44 38 13 40 39 39 29 38 30 32 33 31 22
61 59 58 58 59 56 58 53 60 70 75 74 72 70 58 50 57 57 58 54 54 46 45 46 47 47 46 46 50 38 48 11 32 39 43 40 36 37 36 12 29 33 25 28 30
54 58 59 57 58 58 57 55 56 52 55 67 76 49 58 55 56 56 56 51 53 47 46 45 44 49 47 47 47 50 51 46 47 52 39 37 30 31 31 4 36 36 36 41 34
53 56 56 56 59 59 59 57 58 60 57 70 55 63 68 61 54 56 53 53 50 48 46 44 32 42 44 45 47 45 47 44 42 44 46 32 24 32 38 31 35 31 33 43 46
50 50 55 57 56 57 58 56 59 58 58 57 70 59 65 55 58 57 56 52 51 46 46 46 44 40 46 46 45 44 41 48 15 43 41 42 39 47 34 44 32 34 39 50 33
45 50 54 56 56 56 59 55 58 57 58 57 57 60 55 57 58 57 57 54 51 47 49 46 43 47 46 43 44 43 41 41 41 37 38 40 43 43 39 37 10 34 47 41 49
40 42 47 52 55 57 58 56 56 57 56 57 58 58 57 58 51 53 54 53 50 48 48 45 40 44 45 42 42 42 40 38 44 43 37 44 44 41 41 42 1 25 19 16 11
33 37 41 45 55 55 54 57 56 58 56 57 57 56 50 50 50 51 53 53 50 47 48 38 44 42 42 38 40 38 39 40 38 40 44 44 43 2 24 26 5 3 33 22 13
30 33 37 43 48 47 52 57 56 60 60 57 55 54 55 53 51 53 53 53 49 46 50 45 44 38 44 37 37 36 36 36 28 33 46 38 32 26 30 29 27 22 28 18 25
33 32 36 39 42 47 53 53 59 63 62 56 59 56 57 53 54 53 52 53 49 50 49 46 42 40 46 36 34 37 37 36 8 34 34 28 25 24 33 25 10 21 23 18 28
40 39 40 42 43 45 47 51 54 57 58 58 61 59 57 55 53 53 54 52 51 50 48 47 45 42 40 38 38 38 42 42 36 40 30 23 28 31 28 34 29 28 28 28 17
44 43 42 43 44 46 47 50 52 53 55 56 59 58 57 58 57 55 55 50 50 50 49 48 47 43 40 40 39 21 44 41 36 35 32 17 28 18 29 28 32 30 19 14 20
50 52 52 51 48 49 49 51 51 53 55 56 57 59 57 59 57 56 56 54 55 55 47 49 47 46 42 42 39 41 36 37 35 37 33 30 18 33 33 33 11 6 17 16 23
55 54 54 53 51 50 51 52 54 55 56 58 59 59 57 56 17 53 55 55 55 52 54 52 47 47 44 43 41 42 37 36 35 35 35 32 35 36 35 24 35 21 16 18 17
53 56 56 54 51 49 50 52 51 43 44 49 63 60 60 58 59 54 54 56 57 54 52 37 50 45 44 44 42 41 39 37 37 36 37 34 37 39 25 35 32 22 17 22 25
62 61 59 56 52 49 50 48 19 40 46 49 49 50 51 57 56 56 55 55 54 53 51 51 49 48 47 46 42 42 40 37 38 38 34 33 38 37 37 33 27 21 17 25 32
65 62 60 57 53 51 50 46 32 22 25 22 38 47 47 47 49 58 56 55 55 44 44 51 48 45 47 43 44 42 39 36 37 32 30 31 36 35 35 32 25 21 17 37 34
69 63 61 59 55 52 51 44 33 24 22 24 27 30 34 35 38 48 39 42 43 40 38 39 43 46 45 44 44 39 36 35 34 31 29 37 33 35 33 26 24 21 24 39 37
68 67 66 62 59 55 53 47 40 28 23 23 26 30 32 36 39 41 41 37 37 36 37 37 40 43 44 38 42 41 37 35 31 33 37 35 37 35 30 22 23 25 41 41 38
71 71 68 64 61 59 57 52 43 35 31 32 33 33 35 36 37 36 34 31 34 35 37 34 36 38 37 33 35 35 36 35 33 36 36 36 38 37 30 24 26 22 48 43 30
69 70 72 67 66 62 61 57 48 40 37 36 36 40 39 35 32 32 34 33 30 32 31 32 32 33 31 31 33 35 34 34 36 29 35 35 30 27 26 27 19 23 52 37 36
76 72 70 69 71 69 65 62 54 46 41 41 41 39 34 29 29 30 30 31 32 30 29 30 27 24 27 27 31 27 27 29 31 34 34 32 35 28 29 30 29 25 34 43 33
Wind_Direction
242 246 233 225 237 233 237 243 249 246 249 245 246 228 240 242 255 256 258 254 259 255 265 246 255 261 265 268 270 270 260 259 261 264 264 263 255 264 238 314 268 275 285 301 349
253 238 248 239 235 234 235 234 238 245 248 249 246 248 236 252 251 254 253 266 264 246 257 254 247 243 262 264 267 262 245 263 258 258 264 262 258 260 256 274 263 303 283 313 326
251 234 240 251 240 244 235 236 237 241 241 237 248 248 247 247 238 263 256 258 264 247 248 248 249 244 256 258 261 266 259 257 257 257 260 149 117 260 122 274 263 323 284 291 59
232 241 245 230 244 245 242 247 242 238 239 241 249 247 247 250 251 254 251 250 258 262 256 252 250 249 243 245 251 259 255 262 255 252 253 259 263 260 270 276 274 276 283 288 309
243 240 242 244 238 241 242 246 241 247 239 241 245 248 250 250 253 253 248 265 262 259 250 255 249 252 250 250 249 250 256 254 259 253 254 254 254 265 265 257 278 276 275 292 287
241 240 238 238 241 237 237 226 244 236 236 244 241 247 248 251 252 261 249 258 259 259 255 254 254 251 251 252 253 251 253 254 256 255 241 254 257 259 260 266 269 278 282 275 290
237 238 234 237 236 237 237 229 230 239 238 242 243 249 242 248 249 248 254 252 256 252 255 254 253 252 250 251 253 246 257 204 249 253 253 253 255 260 263 269 269 276 280 274 276
226 229 234 234 234 235 235 231 231 225 224 238 249 229 240 239 243 246 255 247 251 252 255 252 251 254 252 254 255 254 258 262 255 250 251 253 251 246 254 287 273 275 274 269 269
225 224 224 230 229 231 234 233 232 231 229 240 228 237 247 244 238 251 246 247 249 252 256 254 242 252 254 255 254 249 257 249 261 248 258 248 257 241 260 261 269 272 275 277 285
223 225 224 221 228 229 231 231 227 229 227 227 241 231 239 234 244 249 245 242 247 250 252 254 257 255 253 257 257 258 257 261 161 246 251 254 256 262 259 266 264 257 272 284 281
222 221 220 222 226 228 225 230 227 226 225 226 226 230 232 234 237 242 243 244 245 247 248 254 255 255 252 254 255 257 258 243 250 246 249 252 256 260 259 263 85 260 281 276 285
223 222 217 222 220 226 226 225 227 227 226 227 227 228 232 237 235 234 241 242 243 245 249 254 252 253 254 256 258 259 236 258 246 244 242 249 252 255 261 267 233 268 273 281 273
215 218 220 222 224 224 224 223 226 228 230 230 228 232 234 235 236 234 238 240 238 244 248 247 247 252 255 256 259 261 264 265 268 258 248 249 254 148 264 268 297 330 273 276 262
215 215 220 221 222 224 226 224 228 229 231 231 231 233 235 232 233 234 235 238 238 243 245 247 243 244 254 254 257 258 258 255 260 272 248 260 280 272 268 261 270 265 268 276 280
211 216 219 220 221 224 225 225 227 230 231 233 233 235 238 233 233 234 235 236 238 238 243 248 251 253 254 254 254 257 255 258 196 268 272 274 273 272 263 265 226 278 274 277 281
211 216 219 222 224 223 224 228 231 234 234 233 237 238 239 233 234 234 236 235 239 240 244 250 255 254 254 254 248 249 254 257 262 261 268 264 260 263 260 259 267 270 277 273 246
208 215 219 222 224 226 227 230 233 237 238 238 239 239 237 237 233 236 236 238 238 237 243 252 255 256 255 254 254 236 253 259 263 265 264 246 263 270 267 259 264 274 272 269 222
213 217 217 222 223 225 229 232 234 237 239 239 238 239 237 237 236 234 236 240 243 247 244 253 255 257 253 253 253 254 261 263 265 267 265 262 226 260 264 266 181 215 257 239 218
221 220 223 225 224 228 234 237 239 240 241 241 240 239 238 235 188 234 236 240 243 243 251 252 252 255 254 256 257 255 262 262 261 261 262 256 259 261 261 236 270 271 256 214 209
226 225 226 227 229 230 235 237 244 209 218 219 237 236 237 238 238 237 239 241 244 248 250 237 250 252 254 253 258 257 259 260 260 258 258 253 255 259 250 263 268 267 246 217 182
228 228 229 229 227 230 236 240 247 218 210 221 221 226 230 238 241 242 240 243 245 247 248 247 249 248 252 250 251 252 253 255 256 258 261 260 255 257 260 264 265 261 230 190 190
223 224 227 228 228 229 231 232 249 227 183 218 225 224 228 229 235 239 240 240 241 236 238 245 246 244 244 245 247 250 250 250 255 260 259 257 256 256 257 260 254 249 216 185 194
223 227 225 226 227 228 228 229 242 243 225 217 220 211 214 219 222 232 222 227 233 236 237 237 238 241 243 245 249 249 250 247 249 248 249 247 259 251 258 257 239 231 204 193 213
224 225 224 225 225 225 226 224 230 233 221 213 210 206 206 210 214 218 223 226 232 236 237 237 240 242 244 243 245 247 245 245 248 242 245 245 249 248 252 264 231 221 191 209 205
223 224 224 224 226 224 225 224 224 225 219 210 209 207 211 214 219 220 223 222 229 234 239 244 248 253 253 246 245 238 245 246 244 245 246 246 254 258 256 252 231 225 192 203 228
226 224 224 226 224 224 225 226 222 223 216 216 216 215 218 220 222 224 226 230 223 229 236 243 250 258 262 255 243 246 244 247 248 246 250 253 243 241 234 232 236 225 197 213 226
224 224 224 224 223 223 223 225 224 222 218 215 218 221 218 218 219 215 210 212 221 229 236 244 252 264 263 260 252 240 244 247 247 253 250 248 257 263 229 227 220 215 208 219 235